This demonstration page uses our WeatherBlox Daily Observations layout. Learn more.

Left ArrowRight Arrow

47.50024, -111.30081

Hourly Observations for July 6, 2020

Temp ( °F °C ) Dew Point ( °F °C ) Humidity (%) Winds ( mph kmh ) Pressure ( in mb ) Visibility ( mi km ) Precip ( " mm )
4:53 am 04:53 Mostly Clear 48 8.9 44 6.7 86 86 SW 7 11 29.99 1016 10 16 0.00 0.00
5:53 am 05:53 Sunny 50 10 46 7.8 86 86 W 5 7 29.98 1015 10 16 0.00 0.00
6:53 am 06:53 Mostly Sunny 53 11.7 48 8.9 83 83 SSW 6 9 29.98 1015 10 16 0.00 0.00
7:53 am 07:53 Sunny 58 14.4 47 8.3 67 67 SW 12 19 29.98 1015 10 16 0.00 0.00
8:53 am 08:53 Sunny 62 16.7 47 8.3 58 58 SW 7 11 29.98 1015 10 16 0.00 0.00
9:53 am 09:53 Sunny 66 18.9 47 8.3 50 50 WSW 7 11 29.97 1015 10 16 0.00 0.00
10:53 am 10:53 Sunny 71 21.7 45 7.2 39 39 VRB 3 6 29.96 1015 10 16 0.00 0.00
11:53 am 11:53 Sunny 74 23.3 47 8.3 38 38 undefined N/A 29.94 1014 10 16 0.00 0.00
12:53 pm 12:53 Sunny 76 24.4 45 7.2 33 33 VRB 3 6 29.93 1014 10 16 0.00 0.00
1:53 pm 13:53 Sunny 79 26.1 38 3.3 23 23 VRB 3 6 29.91 1013 10 16 0.00 0.00
2:53 pm 14:53 Sunny 80 26.7 41 5 25 25 undefined N/A 29.89 1012 10 16 0.00 0.00
3:53 pm 15:53 Sunny 80 26.7 46 7.8 30 30 VRB 3 6 29.88 1012 10 16 0.00 0.00
4:53 pm 16:53 Sunny 80 26.7 46 7.8 30 30 undefined N/A 29.88 1012 10 16 0.00 0.00
5:53 pm 17:53 Sunny 80 26.7 48 8.9 33 33 E 9 15 29.87 1011 10 16 0.00 0.00
6:53 pm 18:53 Sunny 79 26.1 48 8.9 34 34 ESE 9 15 29.85 1011 10 16 0.00 0.00
7:53 pm 19:53 Sunny 77 25 50 10 39 39 E 10 17 29.83 1010 10 16 0.00 0.00
8:53 pm 20:53 Sunny 72 22.2 53 11.7 52 52 ESE 9 15 29.83 1010 10 16 0.00 0.00
9:53 pm 21:53 Clear 69 20.6 52 11.1 55 55 ESE 12 19 29.83 1010 10 16 0.00 0.00
10:53 pm 22:53 Clear 67 19.4 52 11.1 59 59 ESE 10 17 29.82 1010 10 16 0.00 0.00
11:53 pm 23:53 Clear 66 18.9 51 10.6 59 59 ESE 10 17 29.80 1009 10 16 0.00 0.00

Powered by AerisWeather